星链-3730 (STARLINK-3730 )

导读

STARLINK-3730是美国SpaceX公司星链(Starlink)星座的成员卫星,于2022年3月19日成功发射。星链项目旨在构建全球覆盖的低轨卫星互联网,为偏远地区提供高速宽带服务。该卫星运行于近地轨道,属于星链一代组网卫星,配备相控阵天线与太阳能供电系统,设计寿命约5-7年,退役后会主动离轨再入大气层,减少空间碎片影响,是星链大规模星座部署中的一部分。

基本信息
目录编号:
52139
目录名称:
STARLINK-3730
国际标识:
2022-029BD
轨道中心:
EARTH
卫星名称:
星链-3730
卫星全名:
星链-3730 (STARLINK-3730 )
卫星状态:
在轨 (已飞行1551 天)
发射日期:
2022-03-19 UTC
国别 :
美国 (US)
星等 :
--
轨道信息
数据来源 国际轨道数据
星历时间: 2026-06-17T03:15:33+0800
20小时前
查看轨道信息
半长轴: 6917.573km
偏心率: 0.000081
轨道倾角: 53.160°
近地点辐角 124.876°
升交点赤经 354.091°
平近点角 235.230°
近地点: 538.875km
远地点: 539.997km
周期: 95.431分钟
每日圈数: 15.089407
详细信息
固有亮度:
5
最大亮度:
2.5
卫星平台:
Starlink v1.5
覆盖范围:
全球
运营商:
太空探索技术公司
运营商所在国:
美国
制造商(研发单位):
太空探索技术公司
制造商所在国:
美国
使用方式:
暂无
卫星简介
星链(Starlink)计划是由太空探索技术公司(SpaceX)提出的一个巨型低轨卫星互联网星座项目,计划在2019年至2024年间在太空搭建由约1.2万颗卫星组成的“星链”网络,其中1584颗将部署在地球上空550千米处的近地轨道,并从2020年开始工作。该卫星仍在工作。
2D轨道图
3D轨道图
轨道高度分析图
轨道倾角分析图
轨道综合分析图
查看轨道综合分析图